Year,Month,Day,Hour,Minute,Value (Times are PST for temperature in C)
2010,05,03,00,00,7.30
2010,05,03,00,01,7.30
2010,05,03,00,02,7.30
2010,05,03,00,03,7.30
2010,05,03,00,04,7.30
2010,05,03,00,05,7.30
2010,05,03,00,06,7.30
2010,05,03,00,07,7.30
2010,05,03,00,08,7.30
2010,05,03,00,09,7.30
2010,05,03,00,10,7.30
2010,05,03,00,11,7.30
2010,05,03,00,12,7.20
2010,05,03,00,13,7.20
2010,05,03,00,14,7.20
2010,05,03,00,15,7.20
2010,05,03,00,16,7.20
2010,05,03,00,17,7.20
2010,05,03,00,18,7.20
2010,05,03,00,19,7.20
2010,05,03,00,20,7.20
2010,05,03,00,21,7.20
2010,05,03,00,22,7.20
2010,05,03,00,23,7.20
2010,05,03,00,24,7.20
2010,05,03,00,25,7.20
2010,05,03,00,26,7.20
2010,05,03,00,27,7.20
2010,05,03,00,28,7.20
2010,05,03,00,29,7.20
2010,05,03,00,30,7.20
2010,05,03,00,31,7.20
2010,05,03,00,32,7.20
2010,05,03,00,33,7.20
2010,05,03,00,34,7.20
2010,05,03,00,35,7.20
2010,05,03,00,36,7.20
2010,05,03,00,37,7.20
2010,05,03,00,38,7.20
2010,05,03,00,39,7.20
2010,05,03,00,40,7.20
2010,05,03,00,41,7.20
2010,05,03,00,42,7.20
2010,05,03,00,43,7.30
2010,05,03,00,44,7.30
2010,05,03,00,45,7.30
2010,05,03,00,46,7.30
2010,05,03,00,47,7.30
2010,05,03,00,48,7.30
2010,05,03,00,49,7.30
2010,05,03,00,50,7.30
2010,05,03,00,51,7.30
2010,05,03,00,52,7.30
2010,05,03,00,53,7.30
2010,05,03,00,54,7.30
2010,05,03,00,55,7.30
2010,05,03,00,56,7.30
2010,05,03,00,57,7.30
2010,05,03,00,58,7.30
2010,05,03,00,59,7.30
2010,05,03,01,00,7.30
2010,05,03,01,01,7.30
2010,05,03,01,02,7.30
2010,05,03,01,03,7.40
2010,05,03,01,04,7.40
2010,05,03,01,05,7.40
2010,05,03,01,06,7.40
2010,05,03,01,07,7.40
2010,05,03,01,08,7.40
2010,05,03,01,09,7.40
2010,05,03,01,10,7.40
2010,05,03,01,11,7.40
2010,05,03,01,12,7.40
2010,05,03,01,13,7.40
2010,05,03,01,14,7.40
2010,05,03,01,15,7.40
2010,05,03,01,16,7.40
2010,05,03,01,17,7.40
2010,05,03,01,18,7.50
2010,05,03,01,19,7.50
2010,05,03,01,20,7.50
2010,05,03,01,21,7.50
2010,05,03,01,22,7.50
2010,05,03,01,23,7.50
2010,05,03,01,24,7.50
2010,05,03,01,25,7.60
2010,05,03,01,26,7.60
2010,05,03,01,27,7.60
2010,05,03,01,28,7.60
2010,05,03,01,29,7.60
2010,05,03,01,30,7.60
2010,05,03,01,31,7.60
2010,05,03,01,32,7.60
2010,05,03,01,33,7.60
2010,05,03,01,34,7.60
2010,05,03,01,35,7.70
2010,05,03,01,36,7.70
2010,05,03,01,37,7.70
2010,05,03,01,38,7.70
2010,05,03,01,39,7.70
2010,05,03,01,40,7.70
2010,05,03,01,41,7.70
2010,05,03,01,42,7.70
2010,05,03,01,43,7.80
2010,05,03,01,44,7.80
2010,05,03,01,45,7.80
2010,05,03,01,46,7.80
2010,05,03,01,47,7.80
2010,05,03,01,48,7.80
2010,05,03,01,49,7.90
2010,05,03,01,50,7.90
2010,05,03,01,51,7.90
2010,05,03,01,52,7.90
2010,05,03,01,53,8.00
2010,05,03,01,54,8.00
2010,05,03,01,55,8.00
2010,05,03,01,56,8.10
2010,05,03,01,57,8.10
2010,05,03,01,58,8.10
2010,05,03,01,59,8.20
2010,05,03,02,00,8.20
2010,05,03,02,01,8.20
2010,05,03,02,02,8.30
2010,05,03,02,03,8.30
2010,05,03,02,04,8.40
2010,05,03,02,05,8.50
2010,05,03,02,06,8.50
2010,05,03,02,07,8.60
2010,05,03,02,08,8.70
2010,05,03,02,09,8.70
2010,05,03,02,10,8.80
2010,05,03,02,11,8.90
2010,05,03,02,12,8.90
2010,05,03,02,13,8.90
2010,05,03,02,14,9.00
2010,05,03,02,15,9.00
2010,05,03,02,16,9.10
2010,05,03,02,17,9.10
2010,05,03,02,18,9.10
2010,05,03,02,19,9.20
2010,05,03,02,20,9.20
2010,05,03,02,21,9.20
2010,05,03,02,22,9.20
2010,05,03,02,23,9.20
2010,05,03,02,24,9.20
2010,05,03,02,25,9.20
2010,05,03,02,26,9.20
2010,05,03,02,27,9.20
2010,05,03,02,28,9.20
2010,05,03,02,29,9.20
2010,05,03,02,30,9.20
2010,05,03,02,31,9.20
2010,05,03,02,32,9.20
2010,05,03,02,33,9.20
2010,05,03,02,34,9.10
2010,05,03,02,35,9.10
2010,05,03,02,36,9.10
2010,05,03,02,37,9.10
2010,05,03,02,38,9.10
2010,05,03,02,39,9.00
2010,05,03,02,40,9.00
2010,05,03,02,41,8.90
2010,05,03,02,42,8.90
2010,05,03,02,43,8.80
2010,05,03,02,44,8.70
2010,05,03,02,45,8.70
2010,05,03,02,46,8.60
2010,05,03,02,47,8.50
2010,05,03,02,48,8.50
2010,05,03,02,49,8.40
2010,05,03,02,50,8.30
2010,05,03,02,51,8.20
2010,05,03,02,52,8.10
2010,05,03,02,53,8.10
2010,05,03,02,54,8.00
2010,05,03,02,55,8.00
2010,05,03,02,56,7.90
2010,05,03,02,57,7.90
2010,05,03,02,58,7.80
2010,05,03,02,59,7.80
2010,05,03,03,00,7.80
2010,05,03,03,01,7.80
2010,05,03,03,02,7.80
2010,05,03,03,03,7.70
2010,05,03,03,04,7.70
2010,05,03,03,05,7.70
2010,05,03,03,06,7.70
2010,05,03,03,07,7.60
2010,05,03,03,08,7.60
2010,05,03,03,09,7.60
2010,05,03,03,10,7.60
2010,05,03,03,11,7.50
2010,05,03,03,12,7.50
2010,05,03,03,13,7.50
2010,05,03,03,14,7.40
2010,05,03,03,15,7.40
2010,05,03,03,16,7.40
2010,05,03,03,17,7.40
2010,05,03,03,18,7.40
2010,05,03,03,19,7.40
2010,05,03,03,20,7.40
2010,05,03,03,21,7.40
2010,05,03,03,22,7.40
2010,05,03,03,23,7.40
2010,05,03,03,24,7.40
2010,05,03,03,25,7.40
2010,05,03,03,26,7.40
2010,05,03,03,27,7.40
2010,05,03,03,28,7.40
2010,05,03,03,29,7.40
2010,05,03,03,30,7.40
2010,05,03,03,31,7.40
2010,05,03,03,32,7.40
2010,05,03,09,39,7.80
2010,05,03,09,40,7.90
2010,05,03,09,41,7.90
2010,05,03,09,42,7.90
2010,05,03,09,43,7.90
2010,05,03,09,44,8.00
2010,05,03,09,45,8.00
2010,05,03,09,46,8.10
2010,05,03,09,47,8.10
2010,05,03,09,48,8.20
2010,05,03,09,49,8.20
2010,05,03,09,50,8.20
2010,05,03,09,51,8.20
2010,05,03,09,52,8.10
2010,05,03,09,53,8.20
2010,05,03,09,54,8.20
2010,05,03,09,55,8.20
2010,05,03,09,56,8.20
2010,05,03,09,57,8.20
2010,05,03,09,58,8.30
2010,05,03,09,59,8.20
2010,05,03,10,00,8.30
2010,05,03,10,01,8.30
2010,05,03,10,02,8.30
2010,05,03,10,03,8.40
2010,05,03,10,04,8.40
2010,05,03,10,05,8.50
2010,05,03,10,06,8.50
2010,05,03,10,07,8.60
2010,05,03,10,08,8.60
2010,05,03,10,09,8.60
2010,05,03,10,10,8.70
2010,05,03,10,11,8.70
2010,05,03,10,12,8.80
2010,05,03,10,13,8.80
2010,05,03,10,14,8.80
2010,05,03,10,15,8.70
2010,05,03,10,16,8.70
2010,05,03,10,17,8.70
2010,05,03,10,18,8.70
2010,05,03,10,19,8.70
2010,05,03,10,20,8.70
2010,05,03,10,21,8.60
2010,05,03,10,22,8.60
2010,05,03,10,23,8.70
2010,05,03,10,24,8.70
2010,05,03,10,25,8.70
2010,05,03,10,26,8.80
2010,05,03,10,27,8.80
2010,05,03,10,28,8.80
2010,05,03,10,29,8.80
2010,05,03,10,30,8.80
2010,05,03,10,31,8.90
2010,05,03,10,32,8.90
2010,05,03,10,33,8.90
2010,05,03,10,34,9.00
2010,05,03,10,35,9.10
2010,05,03,10,36,9.10
2010,05,03,10,37,9.10
2010,05,03,10,38,9.10
2010,05,03,10,39,9.10
2010,05,03,10,40,9.10
2010,05,03,10,41,9.10
2010,05,03,10,42,9.10
2010,05,03,10,43,9.10
2010,05,03,10,44,9.20
2010,05,03,10,45,9.20
2010,05,03,10,46,9.20
2010,05,03,10,47,9.30
2010,05,03,10,48,9.30
2010,05,03,10,49,9.30
2010,05,03,10,50,9.30
2010,05,03,10,51,9.40
2010,05,03,10,52,9.40
2010,05,03,10,53,9.40
2010,05,03,10,54,9.40
2010,05,03,10,55,9.40
2010,05,03,10,56,9.30
2010,05,03,10,57,9.30
2010,05,03,10,58,9.30
2010,05,03,10,59,9.40
2010,05,03,11,00,9.40
2010,05,03,11,01,9.40
2010,05,03,11,02,9.40
2010,05,03,11,03,9.40
2010,05,03,11,04,9.50
2010,05,03,11,05,9.50
2010,05,03,11,06,9.60
2010,05,03,11,07,9.60
2010,05,03,11,08,9.60
2010,05,03,11,09,9.60
2010,05,03,11,10,9.60
2010,05,03,11,11,9.60
2010,05,03,11,12,9.60
2010,05,03,11,13,9.60
2010,05,03,11,14,9.60
2010,05,03,11,15,9.60
2010,05,03,11,16,9.60
2010,05,03,11,17,9.60
2010,05,03,11,18,9.60
2010,05,03,11,19,9.60
2010,05,03,11,20,9.50
2010,05,03,11,21,9.60
2010,05,03,11,22,9.60
2010,05,03,11,23,9.60
2010,05,03,11,24,9.60
2010,05,03,11,25,9.50
2010,05,03,11,26,9.50
2010,05,03,11,27,9.50
2010,05,03,11,28,9.60
2010,05,03,11,29,9.60
2010,05,03,11,30,9.70
2010,05,03,11,31,9.70
2010,05,03,11,32,9.80
2010,05,03,11,33,9.90
2010,05,03,11,34,10.00
2010,05,03,11,35,10.00
2010,05,03,11,36,9.90
2010,05,03,11,37,9.90
2010,05,03,11,38,9.90
2010,05,03,11,39,9.80
2010,05,03,11,40,9.70
2010,05,03,11,41,9.70
2010,05,03,11,42,9.80
2010,05,03,11,43,9.70
2010,05,03,11,44,9.70
2010,05,03,11,45,9.60
2010,05,03,11,46,9.60
2010,05,03,11,47,9.60
2010,05,03,11,48,9.70
2010,05,03,11,49,9.70
2010,05,03,11,50,9.80
2010,05,03,11,51,9.80
2010,05,03,11,52,9.70
2010,05,03,11,53,9.70
2010,05,03,11,54,9.80
2010,05,03,11,55,9.80
2010,05,03,11,56,9.90
2010,05,03,11,57,9.80
2010,05,03,11,58,9.80
2010,05,03,11,59,9.80
2010,05,03,12,00,9.70
2010,05,03,12,01,9.80
2010,05,03,12,02,9.80
2010,05,03,12,03,9.80
2010,05,03,12,04,9.90
2010,05,03,12,05,9.90
2010,05,03,12,06,9.90
2010,05,03,12,07,9.90
2010,05,03,12,08,9.90
2010,05,03,12,09,9.90
2010,05,03,12,10,10.00
2010,05,03,12,11,10.00
2010,05,03,12,12,10.10
2010,05,03,12,13,10.20
2010,05,03,12,14,10.20
2010,05,03,12,15,10.20
2010,05,03,12,16,10.20
2010,05,03,12,17,10.20
2010,05,03,12,18,10.10
2010,05,03,12,19,10.00
2010,05,03,12,20,10.10
2010,05,03,12,21,10.10
2010,05,03,12,22,10.20
2010,05,03,12,23,10.20
2010,05,03,12,24,10.10
2010,05,03,12,25,10.10
2010,05,03,12,26,10.00
2010,05,03,12,27,10.00
2010,05,03,12,28,10.10
2010,05,03,12,29,10.20
2010,05,03,12,30,10.20
2010,05,03,12,31,10.20
2010,05,03,12,32,10.30
2010,05,03,12,33,10.30
2010,05,03,12,34,10.30
2010,05,03,12,35,10.20
2010,05,03,12,36,10.10
2010,05,03,12,37,10.10
2010,05,03,12,38,10.10
2010,05,03,12,39,10.20
2010,05,03,12,40,10.30
2010,05,03,12,41,10.30
2010,05,03,12,42,10.30
2010,05,03,12,43,10.20
2010,05,03,12,44,10.20
2010,05,03,12,45,10.10
2010,05,03,12,46,10.10
2010,05,03,12,47,10.30
2010,05,03,12,48,10.20
2010,05,03,12,49,10.20
2010,05,03,12,50,10.20
2010,05,03,12,51,10.20
2010,05,03,12,52,10.10
2010,05,03,12,53,10.10
2010,05,03,12,54,10.10
2010,05,03,12,55,10.20
2010,05,03,12,56,10.20
2010,05,03,12,57,10.10
2010,05,03,12,58,10.20
2010,05,03,12,59,10.10
2010,05,03,13,00,10.10
2010,05,03,13,01,10.00
2010,05,03,13,02,10.00
2010,05,03,13,03,10.00
2010,05,03,13,04,10.10
2010,05,03,13,05,10.00
2010,05,03,13,06,10.00
2010,05,03,13,07,10.00
2010,05,03,13,08,10.00
2010,05,03,13,09,10.00
2010,05,03,13,10,10.10
2010,05,03,13,11,10.10
2010,05,03,13,12,10.20
2010,05,03,13,13,10.20
2010,05,03,13,14,10.20
2010,05,03,13,15,10.10
2010,05,03,13,16,10.10
2010,05,03,13,17,10.10
2010,05,03,13,18,10.10
2010,05,03,13,19,10.20
2010,05,03,13,20,10.20
2010,05,03,13,21,10.30
2010,05,03,13,22,10.30
2010,05,03,13,23,10.30
2010,05,03,13,24,10.40
2010,05,03,13,25,10.30
2010,05,03,13,26,10.30
2010,05,03,13,27,10.40
2010,05,03,13,28,10.50
2010,05,03,13,29,10.50
2010,05,03,13,30,10.60
2010,05,03,13,31,10.60
2010,05,03,13,32,10.70
2010,05,03,13,33,10.70
2010,05,03,13,34,10.70
2010,05,03,13,35,10.60
2010,05,03,13,36,10.60
2010,05,03,13,37,10.50
2010,05,03,13,38,10.40
2010,05,03,13,39,10.40
2010,05,03,13,40,10.40
2010,05,03,13,41,10.50
2010,05,03,13,42,10.60
2010,05,03,13,43,10.70
2010,05,03,13,44,10.60
2010,05,03,13,45,10.50
2010,05,03,13,46,10.40
2010,05,03,13,47,10.30
2010,05,03,13,48,10.30
2010,05,03,13,49,10.30
2010,05,03,13,50,10.30
2010,05,03,13,51,10.20
2010,05,03,13,52,10.20
2010,05,03,13,53,10.10
2010,05,03,13,54,10.10
2010,05,03,13,55,10.00
2010,05,03,13,56,10.00
2010,05,03,13,57,9.90
2010,05,03,13,58,10.00
2010,05,03,13,59,10.00
2010,05,03,14,00,10.20
2010,05,03,14,01,10.30
2010,05,03,14,02,10.50
2010,05,03,14,03,10.50
2010,05,03,14,04,10.50
2010,05,03,14,05,10.50
2010,05,03,14,06,10.50
2010,05,03,14,07,10.40
2010,05,03,14,08,10.40
2010,05,03,14,09,10.40
2010,05,03,14,10,10.40
2010,05,03,14,11,10.40
2010,05,03,14,12,10.30
2010,05,03,14,13,10.30
2010,05,03,14,14,10.30
2010,05,03,14,15,10.20
2010,05,03,14,16,10.20
2010,05,03,14,17,10.00
2010,05,03,14,18,9.90
2010,05,03,14,19,10.00
2010,05,03,14,20,10.00
2010,05,03,14,21,10.20
2010,05,03,14,22,10.30
2010,05,03,14,23,10.50
2010,05,03,14,24,10.60
2010,05,03,14,25,10.50
2010,05,03,14,26,10.50
2010,05,03,14,27,10.50
2010,05,03,14,28,10.60
2010,05,03,14,29,10.60
2010,05,03,14,30,10.60
2010,05,03,14,31,10.60
2010,05,03,14,32,10.50
2010,05,03,14,33,10.50
2010,05,03,14,34,10.40
2010,05,03,14,35,10.30
2010,05,03,14,36,10.20
2010,05,03,14,37,10.20
2010,05,03,14,38,10.20
2010,05,03,14,39,10.20
2010,05,03,14,40,10.10
2010,05,03,14,41,10.00
2010,05,03,14,42,10.00
2010,05,03,14,43,10.00
2010,05,03,14,44,10.00
2010,05,03,14,45,10.00
2010,05,03,14,46,10.10
2010,05,03,14,47,10.10
2010,05,03,14,48,10.10
2010,05,03,14,49,10.10
2010,05,03,14,50,10.10
2010,05,03,14,51,10.00
2010,05,03,14,52,9.90
2010,05,03,14,53,9.90
2010,05,03,14,54,10.00
2010,05,03,14,55,10.10
2010,05,03,14,56,10.20
2010,05,03,14,57,10.30
2010,05,03,14,58,10.30
2010,05,03,14,59,10.40
2010,05,03,15,00,10.40
2010,05,03,15,01,10.40
2010,05,03,15,02,10.20
2010,05,03,15,03,10.00
2010,05,03,15,04,9.90
2010,05,03,15,05,9.80
2010,05,03,15,06,9.70
2010,05,03,15,07,9.60
2010,05,03,15,08,9.50
2010,05,03,15,09,9.40
2010,05,03,15,10,9.40
2010,05,03,15,11,9.40
2010,05,03,15,12,9.40
2010,05,03,15,13,9.40
2010,05,03,15,14,9.40
2010,05,03,15,15,9.40
2010,05,03,15,16,9.40
2010,05,03,15,17,9.50
2010,05,03,15,18,9.60
2010,05,03,15,19,9.70
2010,05,03,15,20,9.70
2010,05,03,15,21,9.70
2010,05,03,15,22,9.70
2010,05,03,15,23,9.70
2010,05,03,15,24,9.70
2010,05,03,15,25,9.70
2010,05,03,15,26,9.70
2010,05,03,15,27,9.70
2010,05,03,15,28,9.60
2010,05,03,15,29,9.50
2010,05,03,15,30,9.50
2010,05,03,15,31,9.40
2010,05,03,15,32,9.40
2010,05,03,15,33,9.30
2010,05,03,15,34,9.40
2010,05,03,15,35,9.50
2010,05,03,15,36,9.70
2010,05,03,15,37,9.80
2010,05,03,15,38,9.80
2010,05,03,15,39,9.80
2010,05,03,15,40,9.80
2010,05,03,15,41,9.60
2010,05,03,15,42,9.50
2010,05,03,15,43,9.30
2010,05,03,15,44,9.20
2010,05,03,15,45,9.10
2010,05,03,15,46,8.90
2010,05,03,15,47,8.80
2010,05,03,15,48,8.90
2010,05,03,15,49,8.90
2010,05,03,15,50,8.90
2010,05,03,15,51,9.00
2010,05,03,15,52,9.10
2010,05,03,15,53,9.00
2010,05,03,15,54,9.00
2010,05,03,15,55,8.90
2010,05,03,15,56,8.90
2010,05,03,15,57,8.90
2010,05,03,15,58,9.00
2010,05,03,15,59,9.10
2010,05,03,16,00,9.10
2010,05,03,16,01,9.10
2010,05,03,16,02,9.10
2010,05,03,16,03,9.10
2010,05,03,16,04,9.10
2010,05,03,16,05,9.20
2010,05,03,16,06,9.20
2010,05,03,16,07,9.30
2010,05,03,16,08,9.30
2010,05,03,16,09,9.30
2010,05,03,16,10,9.30
2010,05,03,16,11,9.20
2010,05,03,16,12,9.10
2010,05,03,16,13,9.10
2010,05,03,16,14,9.10
2010,05,03,16,15,9.00
2010,05,03,16,16,8.90
2010,05,03,16,17,8.90
2010,05,03,16,18,8.90
2010,05,03,16,19,9.00
2010,05,03,16,20,8.90
2010,05,03,16,21,8.90
2010,05,03,16,22,8.80
2010,05,03,16,23,8.80
2010,05,03,16,24,8.70
2010,05,03,16,25,8.70
2010,05,03,16,26,8.60
2010,05,03,16,27,8.60
2010,05,03,16,28,8.70
2010,05,03,16,29,8.70
2010,05,03,16,30,8.70
2010,05,03,16,31,8.70
2010,05,03,16,32,8.70
2010,05,03,16,33,8.70
2010,05,03,16,34,8.70
2010,05,03,16,35,8.60
2010,05,03,16,36,8.60
2010,05,03,16,37,8.50
2010,05,03,16,38,8.50
2010,05,03,16,39,8.40
2010,05,03,16,40,8.40
2010,05,03,16,41,8.40
2010,05,03,16,42,8.40
2010,05,03,16,43,8.40
2010,05,03,16,44,8.40
2010,05,03,16,45,8.50
2010,05,03,16,46,8.50
2010,05,03,16,47,8.50
2010,05,03,16,48,8.50
2010,05,03,16,49,8.50
2010,05,03,16,50,8.40
2010,05,03,16,51,8.40
2010,05,03,16,52,8.40
2010,05,03,16,53,8.40
2010,05,03,16,54,8.40
2010,05,03,16,55,8.40
2010,05,03,16,56,8.40
2010,05,03,16,57,8.40
2010,05,03,16,58,8.40
2010,05,03,16,59,8.30
2010,05,03,17,00,8.40
2010,05,03,17,01,8.40
2010,05,03,17,02,8.40
2010,05,03,17,03,8.40
2010,05,03,17,04,8.40
2010,05,03,17,05,8.40
2010,05,03,17,06,8.40
2010,05,03,17,07,8.40
2010,05,03,17,08,8.40
2010,05,03,17,09,8.20
2010,05,03,17,10,8.10
2010,05,03,17,11,8.00
2010,05,03,17,12,7.80
2010,05,03,17,13,7.70
2010,05,03,17,14,7.60
2010,05,03,17,15,7.60
2010,05,03,17,16,7.50
2010,05,03,17,17,7.50
2010,05,03,17,18,7.50
2010,05,03,17,19,7.50
2010,05,03,17,20,7.50
2010,05,03,17,21,7.60
2010,05,03,17,22,7.60
2010,05,03,17,23,7.60
2010,05,03,17,24,7.70
2010,05,03,17,25,7.70
2010,05,03,17,26,7.70
2010,05,03,17,27,7.80
2010,05,03,17,28,7.80
2010,05,03,17,29,7.80
2010,05,03,17,30,7.80
2010,05,03,17,31,7.80
2010,05,03,17,32,7.70
2010,05,03,17,33,7.70
2010,05,03,17,34,7.60
2010,05,03,17,35,7.50
2010,05,03,17,36,7.50
2010,05,03,17,37,7.50
2010,05,03,17,38,7.40
2010,05,03,17,39,7.40
2010,05,03,17,40,7.40
2010,05,03,17,41,7.40
2010,05,03,17,42,7.40
2010,05,03,17,43,7.50
2010,05,03,17,44,7.50
2010,05,03,17,45,7.40
2010,05,03,17,46,7.50
2010,05,03,17,47,7.50
2010,05,03,17,48,7.50
2010,05,03,17,49,7.60
2010,05,03,17,50,7.60
2010,05,03,17,51,7.70
2010,05,03,17,52,7.70
2010,05,03,17,53,7.70
2010,05,03,17,54,7.80
2010,05,03,17,55,7.80
2010,05,03,17,56,7.90
2010,05,03,17,57,7.90
2010,05,03,17,58,8.00
2010,05,03,17,59,8.00
2010,05,03,18,00,8.10
2010,05,03,18,01,8.10
2010,05,03,18,02,8.00
2010,05,03,18,03,8.00
2010,05,03,18,04,7.90
2010,05,03,18,05,7.80
2010,05,03,18,06,7.70
2010,05,03,18,07,7.60
2010,05,03,18,08,7.50
2010,05,03,18,09,7.40
2010,05,03,18,10,7.30
2010,05,03,18,11,7.20
2010,05,03,18,12,7.20
2010,05,03,18,13,7.20
2010,05,03,18,14,7.20
2010,05,03,18,15,7.20
2010,05,03,18,16,7.20
2010,05,03,18,17,7.20
2010,05,03,18,18,7.20
2010,05,03,18,19,7.20
2010,05,03,18,20,7.20
2010,05,03,18,21,7.10
2010,05,03,18,22,7.10
2010,05,03,18,23,7.10
2010,05,03,18,24,7.10
2010,05,03,18,25,7.10
2010,05,03,18,26,7.10
2010,05,03,18,27,7.00
2010,05,03,18,28,7.10
2010,05,03,18,29,7.10
2010,05,03,18,30,7.10
2010,05,03,18,31,7.10
2010,05,03,18,32,7.20
2010,05,03,18,33,7.20
2010,05,03,18,34,7.10
2010,05,03,18,35,7.10
2010,05,03,18,36,7.10
2010,05,03,18,37,7.10
2010,05,03,18,38,7.10
2010,05,03,18,39,7.10
2010,05,03,18,40,7.10
2010,05,03,18,41,7.10
2010,05,03,18,42,7.10
2010,05,03,18,43,7.20
2010,05,03,18,44,7.20
2010,05,03,18,45,7.20
2010,05,03,18,46,7.20
2010,05,03,18,47,7.20
2010,05,03,18,48,7.20
2010,05,03,18,49,7.20
2010,05,03,18,50,7.20
2010,05,03,18,51,7.20
2010,05,03,18,52,7.20
2010,05,03,18,53,7.20
2010,05,03,18,54,7.20
2010,05,03,18,55,7.20
2010,05,03,18,56,7.30
2010,05,03,18,57,7.30
2010,05,03,18,58,7.20
2010,05,03,18,59,7.30
2010,05,03,19,00,7.20
2010,05,03,19,01,7.20
2010,05,03,19,02,7.20
2010,05,03,19,03,7.20
2010,05,03,19,04,7.20
2010,05,03,19,05,7.20
2010,05,03,19,06,7.20
2010,05,03,19,07,7.20
2010,05,03,19,08,7.20
2010,05,03,19,09,7.20
2010,05,03,19,10,7.20
2010,05,03,19,11,7.20
2010,05,03,19,12,7.20
2010,05,03,19,13,7.20
2010,05,03,19,14,7.20
2010,05,03,19,15,7.20
2010,05,03,19,16,7.20
2010,05,03,19,17,7.20
2010,05,03,19,18,7.20
2010,05,03,19,19,7.20
2010,05,03,19,20,7.20
2010,05,03,19,21,7.10
2010,05,03,19,22,7.10
2010,05,03,19,23,7.10
2010,05,03,19,24,7.10
2010,05,03,19,25,7.10
2010,05,03,19,26,7.10
2010,05,03,19,27,7.10
2010,05,03,19,28,7.10
2010,05,03,19,29,7.10
2010,05,03,19,30,7.10
2010,05,03,19,31,7.00
2010,05,03,19,32,7.00
2010,05,03,19,33,7.00
2010,05,03,19,34,7.00
2010,05,03,19,35,7.00
2010,05,03,19,36,7.00
2010,05,03,19,37,7.00
2010,05,03,19,38,7.00
2010,05,03,19,39,7.00
2010,05,03,19,40,7.00
2010,05,03,19,41,6.90
2010,05,03,19,42,6.90
2010,05,03,19,43,6.90
2010,05,03,19,44,6.90
2010,05,03,19,45,6.90
2010,05,03,19,46,6.90
2010,05,03,19,47,6.90
2010,05,03,19,48,6.90
2010,05,03,19,49,6.90
2010,05,03,19,50,6.90
2010,05,03,19,51,6.80
2010,05,03,19,52,6.80
2010,05,03,19,53,6.80
2010,05,03,19,54,6.80
2010,05,03,19,55,6.80
2010,05,03,19,56,6.80
2010,05,03,19,57,6.80
2010,05,03,19,58,6.80
2010,05,03,19,59,6.80
2010,05,03,20,00,6.70
2010,05,03,20,01,6.70
2010,05,03,20,02,6.70
2010,05,03,20,03,6.70
2010,05,03,20,04,6.60
2010,05,03,20,05,6.60
2010,05,03,20,06,6.60
2010,05,03,20,07,6.60
2010,05,03,20,08,6.50
2010,05,03,20,09,6.50
2010,05,03,20,10,6.50
2010,05,03,20,11,6.50
2010,05,03,20,12,6.40
2010,05,03,20,13,6.50
2010,05,03,20,14,6.50
2010,05,03,20,15,6.50
2010,05,03,20,16,6.50
2010,05,03,20,17,6.50
2010,05,03,20,18,6.50
2010,05,03,20,19,6.50
2010,05,03,20,20,6.50
2010,05,03,20,21,6.50
2010,05,03,20,22,6.50
2010,05,03,20,23,6.50
2010,05,03,20,24,6.50
2010,05,03,20,25,6.60
2010,05,03,20,26,6.50
2010,05,03,20,27,6.50
2010,05,03,20,28,6.50
2010,05,03,20,29,6.50
2010,05,03,20,30,6.50
2010,05,03,20,31,6.60
2010,05,03,20,32,6.60
2010,05,03,20,33,6.60
2010,05,03,20,34,6.60
2010,05,03,20,35,6.60
2010,05,03,20,36,6.60
2010,05,03,20,37,6.60
2010,05,03,20,38,6.60
2010,05,03,20,39,6.60
2010,05,03,20,40,6.60
2010,05,03,20,41,6.60
2010,05,03,20,42,6.60
2010,05,03,20,43,6.60
2010,05,03,20,44,6.60
2010,05,03,20,45,6.60
2010,05,03,20,46,6.50
2010,05,03,20,47,6.50
2010,05,03,20,48,6.50
2010,05,03,20,49,6.50
2010,05,03,20,50,6.40
2010,05,03,20,51,6.40
2010,05,03,20,52,6.40
2010,05,03,20,53,6.40
2010,05,03,20,54,6.40
2010,05,03,20,55,6.40
2010,05,03,20,56,6.40
2010,05,03,20,57,6.40
2010,05,03,20,58,6.40
2010,05,03,20,59,6.40
2010,05,03,21,00,6.30
2010,05,03,21,01,6.30
2010,05,03,21,02,6.30
2010,05,03,21,03,6.40
2010,05,03,21,04,6.40
2010,05,03,21,05,6.40
2010,05,03,21,06,6.40
2010,05,03,21,07,6.40
2010,05,03,21,08,6.40
2010,05,03,21,09,6.40
2010,05,03,21,10,6.40
2010,05,03,21,11,6.30
2010,05,03,21,12,6.30
2010,05,03,21,13,6.30
2010,05,03,21,14,6.40
2010,05,03,21,15,6.40
2010,05,03,21,16,6.40
2010,05,03,21,17,6.40
2010,05,03,21,18,6.40
2010,05,03,21,19,6.40
2010,05,03,21,20,6.40
2010,05,03,21,21,6.40
2010,05,03,21,22,6.40
2010,05,03,21,23,6.40
2010,05,03,21,24,6.40
2010,05,03,21,25,6.40
2010,05,03,21,26,6.40
2010,05,03,21,27,6.40
2010,05,03,21,28,6.40
2010,05,03,21,29,6.40
2010,05,03,21,30,6.50
2010,05,03,21,31,6.50
2010,05,03,21,32,6.50
2010,05,03,21,33,6.50
2010,05,03,21,34,6.50
2010,05,03,21,35,6.50
2010,05,03,21,36,6.50
2010,05,03,21,37,6.50
2010,05,03,21,38,6.50
2010,05,03,21,39,6.50
2010,05,03,21,40,6.60
2010,05,03,21,41,6.50
2010,05,03,21,42,6.50
2010,05,03,21,43,6.50
2010,05,03,21,44,6.40
2010,05,03,21,45,6.40
2010,05,03,21,46,6.40
2010,05,03,21,47,6.40
2010,05,03,21,48,6.40
2010,05,03,21,49,6.40
2010,05,03,21,50,6.40
2010,05,03,21,51,6.30
2010,05,03,21,52,6.30
2010,05,03,21,53,6.30
2010,05,03,21,54,6.30
2010,05,03,21,55,6.30
2010,05,03,21,56,6.20
2010,05,03,21,57,6.20
2010,05,03,21,58,6.20
2010,05,03,21,59,6.20
2010,05,03,22,00,6.20
2010,05,03,22,01,6.20
2010,05,03,22,02,6.20
2010,05,03,22,03,6.20
2010,05,03,22,04,6.10
2010,05,03,22,05,6.10
2010,05,03,22,06,6.10
2010,05,03,22,07,6.10
2010,05,03,22,08,6.10
2010,05,03,22,09,6.10
2010,05,03,22,10,6.10
2010,05,03,22,11,6.10
2010,05,03,22,12,6.10
2010,05,03,22,13,6.00
2010,05,03,22,14,6.00
2010,05,03,22,15,6.00
2010,05,03,22,16,6.00
2010,05,03,22,17,6.00
2010,05,03,22,18,6.00
2010,05,03,22,19,5.90
2010,05,03,22,20,5.90
2010,05,03,22,21,5.90
2010,05,03,22,22,5.90
2010,05,03,22,23,5.90
2010,05,03,22,24,5.90
2010,05,03,22,25,5.90
2010,05,03,22,26,5.90
2010,05,03,22,27,5.90
2010,05,03,22,28,5.90
2010,05,03,22,29,5.90
2010,05,03,22,30,5.90
2010,05,03,22,31,5.90
2010,05,03,22,32,5.90
2010,05,03,22,33,5.80
2010,05,03,22,34,5.80
2010,05,03,22,35,5.80
2010,05,03,22,36,5.80
2010,05,03,22,37,5.80
2010,05,03,22,38,5.80
2010,05,03,22,39,5.80
2010,05,03,22,40,5.80
2010,05,03,22,41,5.80
2010,05,03,22,42,5.80
2010,05,03,22,43,5.80
2010,05,03,22,44,5.80
2010,05,03,22,45,5.80
2010,05,03,22,46,5.80
2010,05,03,22,47,5.80
2010,05,03,22,48,5.80
2010,05,03,22,49,5.70
2010,05,03,22,50,5.80
2010,05,03,22,51,5.80
2010,05,03,22,52,5.80
2010,05,03,22,53,5.80
2010,05,03,22,54,5.80
2010,05,03,22,55,5.80
2010,05,03,22,56,5.80
2010,05,03,22,57,5.80
2010,05,03,22,58,5.80
2010,05,03,22,59,5.80
2010,05,03,23,00,5.80
2010,05,03,23,01,5.80
2010,05,03,23,02,5.80
2010,05,03,23,03,5.80
2010,05,03,23,04,5.80
2010,05,03,23,05,5.80
2010,05,03,23,06,5.80
2010,05,03,23,07,5.80
2010,05,03,23,08,5.80
2010,05,03,23,09,5.80
2010,05,03,23,10,5.80
2010,05,03,23,11,5.70
2010,05,03,23,12,5.70
2010,05,03,23,13,5.70
2010,05,03,23,14,5.70
2010,05,03,23,15,5.70
2010,05,03,23,16,5.70
2010,05,03,23,17,5.70
2010,05,03,23,18,5.70
2010,05,03,23,19,5.70
2010,05,03,23,20,5.60
2010,05,03,23,21,5.60
2010,05,03,23,22,5.60
2010,05,03,23,23,5.60
2010,05,03,23,24,5.60
2010,05,03,23,25,5.60
2010,05,03,23,26,5.60
2010,05,03,23,27,5.60
2010,05,03,23,28,5.60
2010,05,03,23,29,5.60
2010,05,03,23,30,5.60
2010,05,03,23,31,5.60
2010,05,03,23,32,5.60
2010,05,03,23,33,5.60
2010,05,03,23,34,5.60
2010,05,03,23,35,5.60
2010,05,03,23,36,5.60
2010,05,03,23,37,5.70
2010,05,03,23,38,5.70
2010,05,03,23,39,5.70
2010,05,03,23,40,5.70
2010,05,03,23,41,5.70
2010,05,03,23,42,5.70
2010,05,03,23,43,5.70
2010,05,03,23,44,5.70
2010,05,03,23,45,5.70
2010,05,03,23,46,5.70
2010,05,03,23,47,5.70
2010,05,03,23,48,5.70
2010,05,03,23,49,5.70
2010,05,03,23,50,5.70
2010,05,03,23,51,5.70
2010,05,03,23,52,5.70
2010,05,03,23,53,5.70
2010,05,03,23,54,5.60
2010,05,03,23,55,5.70
2010,05,03,23,56,5.60
2010,05,03,23,57,5.60
2010,05,03,23,58,5.60
2010,05,03,23,59,5.60
